User: anonymous
Location: Unspecified
(0.0000°N, 0.0000°E)
Time: 22:59:57
(UTC+00:00)
Language:

ASTRA 1KR - Orbit

View from above orbital plane
View from above orbital plane
View from above satellite
View from above satellite

Ground track
Ground track

The orbit data is extracted from the following two-line orbital elements,

1 29055U 06012A   14238.73431188  .00000000  00000-0  10000-3 0  1179
2 29055 000.0692 274.2682 0004305 275.6170 068.5647 01.00270659 30572
Epoch (UTC): 26 August 2014 17:37:24
Eccentricity: 0.0004305
inclination: 0.0692°
perigee height: 35768 km
apogee height: 35804 km
right ascension of ascending node: 274.2682°
argument of perigee: 275.6170°
revolutions per day: 1.00270659
mean anomaly at epoch: 68.5647°
orbit number at epoch: 3057

The dashed part of the orbit path shows where the satellite is in the earth's shadow,  

DLR